Time,TemperatureF,DewpointF,PressureIn,WindDirection,WindDirectionDegrees,WindSpeedMPH,WindSpeedGustMPH,Humidity,HourlyPrecipIn,Conditions,Clouds,dailyrainin,SolarRadiationWatts/m^2,SoftwareType,DateUTC
2013-06-18 00:02:00,81.1,73.6,30.04,West,281,0.0,0.0,78,0.00,,,0.00,0,Wunderground v.1.15,2013-06-18 04:02:00,
2013-06-18 00:07:00,80.9,73.4,30.04,West,281,0.0,0.0,78,0.00,,,0.00,0,Wunderground v.1.15,2013-06-18 04:07:00,
2013-06-18 00:12:00,80.7,73.2,30.04,West,281,0.0,0.0,78,0.00,,,0.00,0,Wunderground v.1.15,2013-06-18 04:12:00,
2013-06-18 00:17:00,80.7,73.6,30.04,West,281,0.0,0.0,79,0.00,,,0.00,0,Wunderground v.1.15,2013-06-18 04:17:00,
2013-06-18 00:22:00,80.5,73.4,30.04,West,281,0.0,0.0,79,0.00,,,0.00,0,Wunderground v.1.15,2013-06-18 04:22:00,
2013-06-18 00:32:00,80.3,73.6,30.04,West,281,0.0,0.0,80,0.00,,,0.00,0,Wunderground v.1.15,2013-06-18 04:32:00,
2013-06-18 00:37:00,80.3,73.6,30.04,West,281,0.0,0.0,80,0.00,,,0.00,0,Wunderground v.1.15,2013-06-18 04:37:00,
2013-06-18 00:47:00,80.1,73.7,30.04,West,281,0.0,0.0,81,0.00,,,0.00,0,Wunderground v.1.15,2013-06-18 04:47:00,
2013-06-18 00:52:00,79.9,73.5,30.05,West,281,0.0,0.0,81,0.00,,,0.00,0,Wunderground v.1.15,2013-06-18 04:52:00,
2013-06-18 01:02:00,79.8,73.4,30.04,West,281,0.0,0.0,81,0.00,,,0.00,0,Wunderground v.1.15,2013-06-18 05:02:00,
2013-06-18 01:12:00,79.6,73.3,30.04,West,281,0.0,0.0,81,0.00,,,0.00,0,Wunderground v.1.15,2013-06-18 05:12:00,
2013-06-18 01:17:00,79.6,73.6,30.04,West,277,0.0,0.0,82,0.00,,,0.00,0,Wunderground v.1.15,2013-06-18 05:17:00,
2013-06-18 01:22:00,79.4,73.4,30.04,West,281,0.0,0.0,82,0.00,,,0.00,0,Wunderground v.1.15,2013-06-18 05:22:00,
2013-06-18 01:32:00,79.4,73.8,30.04,West,281,0.0,0.0,83,0.00,,,0.00,0,Wunderground v.1.15,2013-06-18 05:32:00,
2013-06-18 01:37:00,79.2,73.6,30.03,West,281,0.0,0.0,83,0.00,,,0.00,0,Wunderground v.1.15,2013-06-18 05:37:00,
2013-06-18 01:47:00,79.0,73.4,30.03,West,281,0.0,0.0,83,0.00,,,0.00,0,Wunderground v.1.15,2013-06-18 05:47:00,
2013-06-18 01:57:00,78.8,73.2,30.03,West,281,0.0,0.0,83,0.00,,,0.00,0,Wunderground v.1.15,2013-06-18 05:57:00,
2013-06-18 02:02:00,78.8,73.2,30.02,West,281,0.0,0.0,83,0.00,,,0.00,0,Wunderground v.1.15,2013-06-18 06:02:00,
2013-06-18 02:07:00,78.8,73.2,30.02,West,281,0.0,0.0,83,0.00,,,0.00,0,Wunderground v.1.15,2013-06-18 06:07:00,
2013-06-18 02:17:00,78.8,73.6,30.02,West,281,0.0,0.0,84,0.00,,,0.00,0,Wunderground v.1.15,2013-06-18 06:17:00,
2013-06-18 02:22:00,78.6,73.4,30.02,West,281,0.0,0.0,84,0.00,,,0.00,0,Wunderground v.1.15,2013-06-18 06:22:00,
2013-06-18 02:27:00,78.6,73.4,30.02,West,281,0.0,0.0,84,0.00,,,0.00,0,Wunderground v.1.15,2013-06-18 06:27:00,
2013-06-18 02:32:00,78.6,73.4,30.01,West,281,0.0,0.0,84,0.00,,,0.00,0,Wunderground v.1.15,2013-06-18 06:32:00,
2013-06-18 02:37:00,78.6,73.7,30.01,West,281,0.0,0.0,85,0.00,,,0.00,0,Wunderground v.1.15,2013-06-18 06:37:00,
2013-06-18 02:42:00,78.5,73.6,30.01,West,281,0.0,0.0,85,0.00,,,0.00,0,Wunderground v.1.15,2013-06-18 06:42:00,
2013-06-18 02:52:00,78.5,73.6,30.01,West,281,0.0,0.0,85,0.00,,,0.00,0,Wunderground v.1.15,2013-06-18 06:52:00,
2013-06-18 03:02:00,78.5,74.0,30.01,West,278,0.0,0.0,86,0.00,,,0.00,0,Wunderground v.1.15,2013-06-18 07:02:00,
2013-06-18 03:12:00,78.5,74.0,30.01,West,270,1.0,1.0,86,0.00,,,0.00,0,Wunderground v.1.15,2013-06-18 07:12:00,
2013-06-18 03:22:00,78.3,74.1,30.01,WSW,253,1.0,1.0,87,0.00,,,0.00,0,Wunderground v.1.15,2013-06-18 07:22:00,
2013-06-18 03:27:00,78.3,74.1,30.01,WSW,253,0.0,1.0,87,0.00,,,0.00,0,Wunderground v.1.15,2013-06-18 07:27:00,
2013-06-18 03:32:00,78.3,74.1,30.01,WSW,253,0.0,1.0,87,0.00,,,0.00,0,Wunderground v.1.15,2013-06-18 07:32:00,
2013-06-18 03:37:00,78.3,74.1,30.01,WSW,253,0.0,1.0,87,0.00,,,0.00,0,Wunderground v.1.15,2013-06-18 07:37:00,
2013-06-18 03:42:00,78.3,74.1,30.01,WSW,253,0.0,0.0,87,0.00,,,0.00,0,Wunderground v.1.15,2013-06-18 07:42:00,
2013-06-18 03:52:00,78.1,73.9,30.00,WSW,253,0.0,0.0,87,0.00,,,0.00,0,Wunderground v.1.15,2013-06-18 07:52:00,
2013-06-18 03:57:00,78.1,73.9,30.00,WSW,253,0.0,0.0,87,0.00,,,0.00,0,Wunderground v.1.15,2013-06-18 07:57:00,
2013-06-18 04:07:00,78.1,73.9,30.00,WSW,253,0.0,0.0,87,0.00,,,0.00,0,Wunderground v.1.15,2013-06-18 08:07:00,
2013-06-18 04:12:00,77.9,73.7,30.00,WSW,253,0.0,0.0,87,0.00,,,0.00,0,Wunderground v.1.15,2013-06-18 08:12:00,
2013-06-18 04:17:00,77.9,73.7,30.00,WSW,253,0.0,0.0,87,0.00,,,0.00,0,Wunderground v.1.15,2013-06-18 08:17:00,
2013-06-18 04:27:00,77.7,73.5,30.00,WSW,253,0.0,0.0,87,0.00,,,0.00,0,Wunderground v.1.15,2013-06-18 08:27:00,
2013-06-18 04:32:00,77.7,73.5,30.00,WSW,253,0.0,0.0,87,0.00,,,0.00,0,Wunderground v.1.15,2013-06-18 08:32:00,
2013-06-18 04:42:00,77.6,73.4,30.00,WSW,253,0.0,0.0,87,0.00,,,0.00,0,Wunderground v.1.15,2013-06-18 08:42:00,
2013-06-18 04:47:00,77.6,73.4,30.00,WSW,253,0.0,0.0,87,0.00,,,0.00,0,Wunderground v.1.15,2013-06-18 08:47:00,
2013-06-18 04:52:00,77.4,73.2,30.00,WSW,253,0.0,0.0,87,0.00,,,0.00,0,Wunderground v.1.15,2013-06-18 08:52:00,
2013-06-18 05:02:00,77.2,73.4,30.00,WSW,253,0.0,0.0,88,0.00,,,0.00,0,Wunderground v.1.15,2013-06-18 09:02:00,
2013-06-18 05:07:00,77.2,73.4,30.00,WSW,253,0.0,0.0,88,0.00,,,0.00,0,Wunderground v.1.15,2013-06-18 09:07:00,
2013-06-18 05:12:00,77.2,73.4,30.00,WSW,253,0.0,0.0,88,0.00,,,0.00,0,Wunderground v.1.15,2013-06-18 09:12:00,
2013-06-18 05:17:00,77.0,73.2,29.99,WSW,253,0.0,0.0,88,0.00,,,0.00,0,Wunderground v.1.15,2013-06-18 09:17:00,
2013-06-18 05:27:00,77.0,73.2,30.00,WSW,253,0.0,0.0,88,0.00,,,0.00,0,Wunderground v.1.15,2013-06-18 09:27:00,
2013-06-18 05:32:00,77.0,73.2,30.00,WSW,253,0.0,0.0,88,0.00,,,0.00,0,Wunderground v.1.15,2013-06-18 09:32:00,
2013-06-18 05:37:00,76.8,73.0,30.00,WSW,253,0.0,0.0,88,0.00,,,0.00,0,Wunderground v.1.15,2013-06-18 09:37:00,
2013-06-18 05:42:00,76.8,73.0,30.00,WSW,253,0.0,0.0,88,0.00,,,0.00,0,Wunderground v.1.15,2013-06-18 09:42:00,
2013-06-18 05:47:00,76.8,73.0,30.01,WSW,253,0.0,0.0,88,0.00,,,0.00,0,Wunderground v.1.15,2013-06-18 09:47:00,
2013-06-18 05:52:00,76.8,73.0,30.01,WSW,248,0.0,0.0,88,0.00,,,0.00,0,Wunderground v.1.15,2013-06-18 09:52:00,
2013-06-18 06:02:00,76.7,73.2,30.01,WSW,253,0.0,0.0,89,0.00,,,0.00,0,Wunderground v.1.15,2013-06-18 10:02:00,
2013-06-18 06:07:00,76.7,73.2,30.01,WSW,253,0.0,0.0,89,0.00,,,0.00,0,Wunderground v.1.15,2013-06-18 10:07:00,
2013-06-18 06:17:00,76.5,73.0,30.01,WSW,253,0.0,0.0,89,0.00,,,0.00,0,Wunderground v.1.15,2013-06-18 10:17:00,
2013-06-18 06:22:00,76.5,73.0,30.02,WSW,253,0.0,0.0,89,0.00,,,0.00,0,Wunderground v.1.15,2013-06-18 10:22:00,
2013-06-18 06:27:00,76.7,73.2,30.01,WSW,253,0.0,0.0,89,0.00,,,0.00,0,Wunderground v.1.15,2013-06-18 10:27:00,
2013-06-18 06:32:00,76.7,73.2,30.01,WSW,253,0.0,0.0,89,0.00,,,0.00,0,Wunderground v.1.15,2013-06-18 10:32:00,
2013-06-18 06:37:00,76.5,73.0,30.01,WSW,253,0.0,0.0,89,0.00,,,0.00,0,Wunderground v.1.15,2013-06-18 10:37:00,
2013-06-18 06:47:00,76.5,73.0,30.01,WSW,253,0.0,0.0,89,0.00,,,0.00,0,Wunderground v.1.15,2013-06-18 10:47:00,
2013-06-18 06:52:00,76.5,73.0,30.01,WSW,253,0.0,0.0,89,0.00,,,0.00,5,Wunderground v.1.15,2013-06-18 10:52:00,
2013-06-18 06:57:00,76.5,73.0,30.01,WSW,253,0.0,0.0,89,0.00,,,0.00,7,Wunderground v.1.15,2013-06-18 10:57:00,
2013-06-18 07:02:00,76.5,73.0,30.01,WSW,253,0.0,0.0,89,0.00,,,0.00,9,Wunderground v.1.15,2013-06-18 11:02:00,
2013-06-18 07:07:00,76.5,73.3,30.01,WSW,253,0.0,0.0,90,0.00,,,0.00,12,Wunderground v.1.15,2013-06-18 11:07:00,
2013-06-18 07:12:00,76.5,73.3,30.02,WSW,253,0.0,0.0,90,0.00,,,0.00,14,Wunderground v.1.15,2013-06-18 11:12:00,
2013-06-18 07:22:00,76.7,73.5,30.02,WSW,253,0.0,0.0,90,0.00,,,0.00,19,Wunderground v.1.15,2013-06-18 11:22:00,
2013-06-18 07:27:00,76.8,73.6,30.02,WSW,253,0.0,0.0,90,0.00,,,0.00,23,Wunderground v.1.15,2013-06-18 11:27:00,
2013-06-18 07:32:00,77.0,73.8,30.02,WSW,248,0.0,0.0,90,0.00,,,0.00,26,Wunderground v.1.15,2013-06-18 11:32:00,
2013-06-18 07:37:00,77.2,74.0,30.02,WSW,253,0.0,0.0,90,0.00,,,0.00,26,Wunderground v.1.15,2013-06-18 11:37:00,
2013-06-18 07:42:00,77.6,74.8,30.02,WSW,253,0.0,1.0,91,0.00,,,0.00,28,Wunderground v.1.15,2013-06-18 11:42:00,
2013-06-18 07:52:00,78.1,75.3,30.02,SSE,152,1.0,2.0,91,0.00,,,0.00,37,Wunderground v.1.15,2013-06-18 11:52:00,
2013-06-18 07:57:00,78.3,75.5,30.02,SSE,152,1.0,2.0,91,0.00,,,0.00,35,Wunderground v.1.15,2013-06-18 11:57:00,
2013-06-18 08:07:00,78.6,75.8,30.03,SSE,152,0.0,1.0,91,0.00,,,0.00,37,Wunderground v.1.15,2013-06-18 12:07:00,
2013-06-18 08:17:00,79.0,75.8,30.04,SSE,152,0.0,2.0,90,0.00,,,0.00,49,Wunderground v.1.15,2013-06-18 12:17:00,
2013-06-18 08:22:00,79.4,76.2,30.04,SSE,154,1.0,1.0,90,0.00,,,0.00,53,Wunderground v.1.15,2013-06-18 12:22:00,
2013-06-18 08:27:00,79.6,76.4,30.04,SSE,157,0.0,2.0,90,0.00,,,0.00,81,Wunderground v.1.15,2013-06-18 12:27:00,
2013-06-18 08:32:00,79.9,76.4,30.04,South,188,1.0,1.0,89,0.00,,,0.00,77,Wunderground v.1.15,2013-06-18 12:32:00,
2013-06-18 08:42:00,80.5,76.6,30.04,SW,223,1.0,1.0,88,0.00,,,0.00,118,Wunderground v.1.15,2013-06-18 12:42:00,
2013-06-18 08:47:00,81.6,76.6,30.05,WSW,240,1.0,6.0,85,0.00,,,0.00,102,Wunderground v.1.15,2013-06-18 12:47:00,
2013-06-18 08:52:00,82.4,76.7,30.04,SW,232,2.0,6.0,83,0.00,,,0.00,62,Wunderground v.1.15,2013-06-18 12:52:00,
2013-06-18 09:02:00,82.4,75.6,30.04,South,182,2.0,3.0,80,0.00,,,0.00,42,Wunderground v.1.15,2013-06-18 13:02:00,
2013-06-18 09:07:00,82.6,75.4,30.04,SSW,202,1.0,3.0,79,0.00,,,0.00,55,Wunderground v.1.15,2013-06-18 13:07:00,
2013-06-18 09:17:00,83.0,75.4,30.04,SW,216,2.0,2.0,78,0.00,,,0.00,106,Wunderground v.1.15,2013-06-18 13:17:00,
2013-06-18 09:22:00,84.1,75.7,30.04,SW,216,2.0,4.0,76,0.00,,,0.00,472,Wunderground v.1.15,2013-06-18 13:22:00,
2013-06-18 09:27:00,84.7,75.9,30.04,SSW,209,2.0,5.0,75,0.00,,,0.00,528,Wunderground v.1.15,2013-06-18 13:27:00,
2013-06-18 09:37:00,85.1,75.5,30.04,WSW,240,3.0,5.0,73,0.00,,,0.00,596,Wunderground v.1.15,2013-06-18 13:37:00,
2013-06-18 09:42:00,85.3,75.7,30.04,SSE,157,3.0,9.0,73,0.00,,,0.00,602,Wunderground v.1.15,2013-06-18 13:42:00,
2013-06-18 09:47:00,85.9,75.4,30.04,West,268,3.0,9.0,71,0.00,,,0.00,632,Wunderground v.1.15,2013-06-18 13:47:00,
2013-06-18 09:52:00,86.7,75.3,30.04,South,175,4.0,5.0,69,0.00,,,0.00,623,Wunderground v.1.15,2013-06-18 13:52:00,
2013-06-18 09:57:00,87.0,75.2,30.04,SSW,210,4.0,5.0,68,0.00,,,0.00,651,Wunderground v.1.15,2013-06-18 13:57:00,
2013-06-18 10:02:00,87.4,75.5,30.04,SW,233,4.0,4.0,68,0.00,,,0.00,656,Wunderground v.1.15,2013-06-18 14:02:00,
2013-06-18 10:07:00,87.4,75.1,30.04,SE,130,3.0,4.0,67,0.00,,,0.00,684,Wunderground v.1.15,2013-06-18 14:07:00,
2013-06-18 10:17:00,87.8,75.9,30.04,South,181,4.0,4.0,68,0.00,,,0.00,737,Wunderground v.1.15,2013-06-18 14:17:00,
2013-06-18 10:22:00,87.8,74.6,30.04,SSW,198,4.0,4.0,65,0.00,,,0.00,753,Wunderground v.1.15,2013-06-18 14:22:00,
2013-06-18 10:27:00,87.6,74.8,30.04,South,186,4.0,4.0,66,0.00,,,0.00,776,Wunderground v.1.15,2013-06-18 14:27:00,
2013-06-18 10:32:00,87.4,74.2,30.04,SSE,168,4.0,4.0,65,0.00,,,0.00,208,Wunderground v.1.15,2013-06-18 14:32:00,
2013-06-18 10:37:00,87.8,75.9,30.04,SW,234,3.0,7.0,68,0.00,,,0.00,850,Wunderground v.1.15,2013-06-18 14:37:00,
2013-06-18 10:42:00,88.4,74.7,30.04,South,179,3.0,7.0,64,0.00,,,0.00,829,Wunderground v.1.15,2013-06-18 14:42:00,
2013-06-18 10:52:00,88.2,74.5,30.04,WSW,240,4.0,6.0,64,0.00,,,0.00,867,Wunderground v.1.15,2013-06-18 14:52:00,
2013-06-18 10:57:00,88.6,74.9,30.04,SSW,208,5.0,6.0,64,0.00,,,0.00,903,Wunderground v.1.15,2013-06-18 14:57:00,
2013-06-18 11:02:00,88.6,74.4,30.04,SW,226,4.0,6.0,63,0.00,,,0.00,918,Wunderground v.1.15,2013-06-18 15:02:00,
2013-06-18 11:07:00,89.3,75.5,30.05,SSW,205,5.0,6.0,64,0.00,,,0.00,910,Wunderground v.1.15,2013-06-18 15:07:00,
2013-06-18 11:12:00,89.5,75.7,30.05,SW,220,5.0,6.0,64,0.00,,,0.00,911,Wunderground v.1.15,2013-06-18 15:12:00,
2013-06-18 11:22:00,88.8,75.5,30.05,WSW,250,5.0,10.0,65,0.00,,,0.00,253,Wunderground v.1.15,2013-06-18 15:22:00,
2013-06-18 11:27:00,88.0,75.7,30.05,SW,215,5.0,10.0,67,0.00,,,0.00,222,Wunderground v.1.15,2013-06-18 15:27:00,
2013-06-18 11:37:00,87.6,75.3,30.05,SSW,205,6.0,6.0,67,0.00,,,0.00,195,Wunderground v.1.15,2013-06-18 15:37:00,
2013-06-18 11:42:00,87.2,75.8,30.04,SSW,203,5.0,5.0,69,0.00,,,0.00,248,Wunderground v.1.15,2013-06-18 15:42:00,
2013-06-18 11:47:00,87.2,75.3,30.04,SW,226,4.0,5.0,68,0.00,,,0.00,245,Wunderground v.1.15,2013-06-18 15:47:00,
2013-06-18 11:57:00,89.0,75.7,30.04,SSE,150,4.0,7.0,65,0.00,,,0.00,971,Wunderground v.1.15,2013-06-18 15:57:00,
2013-06-18 12:02:00,88.4,74.7,30.04,SSE,164,6.0,6.0,64,0.00,,,0.00,996,Wunderground v.1.15,2013-06-18 16:02:00,
2013-06-18 12:07:00,88.6,74.4,30.04,SW,232,5.0,11.0,63,0.00,,,0.00,241,Wunderground v.1.15,2013-06-18 16:07:00,
2013-06-18 12:17:00,89.7,74.5,30.05,SSW,192,5.0,7.0,61,0.00,,,0.00,1049,Wunderground v.1.15,2013-06-18 16:17:00,
2013-06-18 12:22:00,89.7,75.4,30.05,SW,215,5.0,5.0,63,0.00,,,0.00,1070,Wunderground v.1.15,2013-06-18 16:22:00,
2013-06-18 12:27:00,90.3,76.0,30.04,WNW,288,4.0,5.0,63,0.00,,,0.00,1075,Wunderground v.1.15,2013-06-18 16:27:00,
2013-06-18 12:32:00,90.1,75.3,30.05,SSW,195,4.0,4.0,62,0.00,,,0.00,1070,Wunderground v.1.15,2013-06-18 16:32:00,
2013-06-18 12:42:00,90.3,75.5,30.04,West,260,3.0,5.0,62,0.00,,,0.00,1068,Wunderground v.1.15,2013-06-18 16:42:00,
2013-06-18 12:52:00,90.7,75.4,30.04,SW,220,5.0,10.0,61,0.00,,,0.00,1123,Wunderground v.1.15,2013-06-18 16:52:00,
2013-06-18 12:57:00,90.5,75.2,30.04,WSW,239,6.0,10.0,61,0.00,,,0.00,994,Wunderground v.1.15,2013-06-18 16:57:00,
2013-06-18 13:07:00,90.1,74.8,30.04,SSW,199,6.0,8.0,61,0.00,,,0.00,1072,Wunderground v.1.15,2013-06-18 17:07:00,
2013-06-18 13:17:00,90.5,74.2,30.04,SW,219,6.0,7.0,59,0.00,,,0.00,1024,Wunderground v.1.15,2013-06-18 17:17:00,
2013-06-18 13:22:00,91.4,74.0,30.04,SSW,208,6.0,6.0,57,0.00,,,0.00,1059,Wunderground v.1.15,2013-06-18 17:22:00,
2013-06-18 13:27:00,91.6,75.7,30.04,SW,217,4.0,6.0,60,0.00,,,0.00,1019,Wunderground v.1.15,2013-06-18 17:27:00,
2013-06-18 13:32:00,90.7,73.9,30.03,West,278,5.0,8.0,58,0.00,,,0.00,1056,Wunderground v.1.15,2013-06-18 17:32:00,
2013-06-18 13:37:00,91.0,75.2,30.03,WSW,254,6.0,8.0,60,0.00,,,0.00,1017,Wunderground v.1.15,2013-06-18 17:37:00,
2013-06-18 13:42:00,91.0,74.2,30.03,SW,219,6.0,11.0,58,0.00,,,0.00,1063,Wunderground v.1.15,2013-06-18 17:42:00,
2013-06-18 13:47:00,90.3,73.5,30.03,WSW,254,6.0,11.0,58,0.00,,,0.00,252,Wunderground v.1.15,2013-06-18 17:47:00,
2013-06-18 13:52:00,90.5,74.2,30.03,SSW,199,6.0,6.0,59,0.00,,,0.00,992,Wunderground v.1.15,2013-06-18 17:52:00,
2013-06-18 13:57:00,90.5,75.7,30.03,WSW,240,6.0,6.0,62,0.00,,,0.00,1087,Wunderground v.1.15,2013-06-18 17:57:00,
2013-06-18 14:02:00,91.0,75.7,30.02,SW,234,6.0,8.0,61,0.00,,,0.00,1013,Wunderground v.1.15,2013-06-18 18:02:00,
2013-06-18 14:07:00,90.5,73.7,30.02,South,178,6.0,8.0,58,0.00,,,0.00,977,Wunderground v.1.15,2013-06-18 18:07:00,
2013-06-18 14:12:00,91.2,74.9,30.02,WSW,254,5.0,5.0,59,0.00,,,0.00,984,Wunderground v.1.15,2013-06-18 18:12:00,
2013-06-18 14:17:00,91.6,74.2,30.02,SSW,202,5.0,5.0,57,0.00,,,0.00,966,Wunderground v.1.15,2013-06-18 18:17:00,
2013-06-18 14:22:00,91.2,74.4,30.02,WSW,248,5.0,7.0,58,0.00,,,0.00,962,Wunderground v.1.15,2013-06-18 18:22:00,
2013-06-18 14:27:00,91.0,74.7,30.02,WSW,241,5.0,7.0,59,0.00,,,0.00,954,Wunderground v.1.15,2013-06-18 18:27:00,
2013-06-18 14:32:00,91.2,75.4,30.01,SW,222,6.0,6.0,60,0.00,,,0.00,975,Wunderground v.1.15,2013-06-18 18:32:00,
2013-06-18 14:37:00,91.0,75.2,30.01,SSW,208,5.0,6.0,60,0.00,,,0.00,996,Wunderground v.1.15,2013-06-18 18:37:00,
2013-06-18 14:42:00,91.2,75.4,30.01,SW,227,6.0,6.0,60,0.00,,,0.00,973,Wunderground v.1.15,2013-06-18 18:42:00,
2013-06-18 14:47:00,91.4,75.1,30.01,South,171,6.0,6.0,59,0.00,,,0.00,947,Wunderground v.1.15,2013-06-18 18:47:00,
2013-06-18 14:52:00,90.7,74.4,30.01,West,268,5.0,7.0,59,0.00,,,0.00,961,Wunderground v.1.15,2013-06-18 18:52:00,
2013-06-18 14:57:00,92.1,75.2,30.01,SSW,198,4.0,7.0,58,0.00,,,0.00,964,Wunderground v.1.15,2013-06-18 18:57:00,
2013-06-18 15:02:00,91.2,73.8,30.00,SSW,209,5.0,11.0,57,0.00,,,0.00,918,Wunderground v.1.15,2013-06-18 19:02:00,
2013-06-18 15:07:00,91.0,73.7,30.01,SSE,155,6.0,11.0,57,0.00,,,0.00,922,Wunderground v.1.15,2013-06-18 19:07:00,
2013-06-18 15:17:00,90.5,74.2,30.01,SSW,213,5.0,6.0,59,0.00,,,0.00,994,Wunderground v.1.15,2013-06-18 19:17:00,
2013-06-18 15:22:00,90.7,74.9,30.01,WNW,287,5.0,5.0,60,0.00,,,0.00,978,Wunderground v.1.15,2013-06-18 19:22:00,
2013-06-18 15:27:00,91.4,74.5,30.01,SW,215,5.0,5.0,58,0.00,,,0.00,206,Wunderground v.1.15,2013-06-18 19:27:00,
2013-06-18 15:32:00,90.7,75.4,30.01,SW,215,6.0,8.0,61,0.00,,,0.00,913,Wunderground v.1.15,2013-06-18 19:32:00,
2013-06-18 15:37:00,90.3,74.0,30.00,SW,224,6.0,8.0,59,0.00,,,0.00,746,Wunderground v.1.15,2013-06-18 19:37:00,
2013-06-18 15:42:00,90.3,73.0,30.00,SW,220,6.0,7.0,57,0.00,,,0.00,846,Wunderground v.1.15,2013-06-18 19:42:00,
2013-06-18 15:47:00,90.5,73.2,30.00,SW,224,6.0,7.0,57,0.00,,,0.00,818,Wunderground v.1.15,2013-06-18 19:47:00,
2013-06-18 15:57:00,91.2,72.2,30.00,SW,232,7.0,7.0,54,0.00,,,0.00,794,Wunderground v.1.15,2013-06-18 19:57:00,
2013-06-18 16:02:00,91.8,73.9,30.00,SW,219,7.0,7.0,56,0.00,,,0.00,794,Wunderground v.1.15,2013-06-18 20:02:00,
2013-06-18 16:12:00,91.6,74.2,29.99,SSW,212,6.0,6.0,57,0.00,,,0.00,762,Wunderground v.1.15,2013-06-18 20:12:00,
2013-06-18 16:17:00,91.8,74.4,29.99,SW,219,5.0,7.0,57,0.00,,,0.00,739,Wunderground v.1.15,2013-06-18 20:17:00,
2013-06-18 16:27:00,91.8,73.9,29.98,West,270,5.0,8.0,56,0.00,,,0.00,709,Wunderground v.1.15,2013-06-18 20:27:00,
2013-06-18 16:32:00,91.8,73.9,29.98,SW,224,5.0,5.0,56,0.00,,,0.00,695,Wunderground v.1.15,2013-06-18 20:32:00,
2013-06-18 16:37:00,92.1,74.7,29.98,NW,308,4.0,5.0,57,0.00,,,0.00,679,Wunderground v.1.15,2013-06-18 20:37:00,
2013-06-18 16:47:00,91.6,73.7,29.98,NNW,335,5.0,5.0,56,0.00,,,0.00,669,Wunderground v.1.15,2013-06-18 20:47:00,
2013-06-18 16:52:00,91.8,74.4,29.98,WSW,250,5.0,7.0,57,0.00,,,0.00,648,Wunderground v.1.15,2013-06-18 20:52:00,
2013-06-18 16:57:00,91.4,74.0,29.98,SW,230,5.0,7.0,57,0.00,,,0.00,640,Wunderground v.1.15,2013-06-18 20:57:00,
2013-06-18 17:07:00,91.4,74.0,29.98,South,184,6.0,6.0,57,0.00,,,0.00,611,Wunderground v.1.15,2013-06-18 21:07:00,
2013-06-18 17:12:00,91.4,74.0,29.98,SW,219,7.0,7.0,57,0.00,,,0.00,586,Wunderground v.1.15,2013-06-18 21:12:00,
2013-06-18 17:17:00,91.4,74.0,29.98,West,261,6.0,7.0,57,0.00,,,0.00,575,Wunderground v.1.15,2013-06-18 21:17:00,
2013-06-18 17:22:00,91.2,73.8,29.98,SW,236,6.0,6.0,57,0.00,,,0.00,565,Wunderground v.1.15,2013-06-18 21:22:00,
2013-06-18 17:27:00,91.0,73.7,29.98,West,260,6.0,6.0,57,0.00,,,0.00,306,Wunderground v.1.15,2013-06-18 21:27:00,
2013-06-18 17:37:00,91.0,74.7,29.97,WSW,239,5.0,6.0,59,0.00,,,0.00,507,Wunderground v.1.15,2013-06-18 21:37:00,
2013-06-18 17:42:00,91.2,74.4,29.97,SW,236,5.0,5.0,58,0.00,,,0.00,479,Wunderground v.1.15,2013-06-18 21:42:00,
2013-06-18 17:47:00,91.4,75.1,29.97,WSW,243,5.0,10.0,59,0.00,,,0.00,482,Wunderground v.1.15,2013-06-18 21:47:00,
2013-06-18 17:57:00,91.2,75.4,29.97,SW,226,4.0,7.0,60,0.00,,,0.00,443,Wunderground v.1.15,2013-06-18 21:57:00,
2013-06-18 18:02:00,91.0,74.2,29.97,SW,227,4.0,4.0,58,0.00,,,0.00,429,Wunderground v.1.15,2013-06-18 22:02:00,
2013-06-18 18:07:00,90.7,74.4,29.97,West,278,5.0,5.0,59,0.00,,,0.00,412,Wunderground v.1.15,2013-06-18 22:07:00,
2013-06-18 18:12:00,90.5,73.7,29.97,West,265,4.0,9.0,58,0.00,,,0.00,380,Wunderground v.1.15,2013-06-18 22:12:00,
2013-06-18 18:17:00,90.1,73.3,29.97,SW,216,5.0,9.0,58,0.00,,,0.00,354,Wunderground v.1.15,2013-06-18 22:17:00,
2013-06-18 18:22:00,90.1,73.3,29.96,SW,216,5.0,5.0,58,0.00,,,0.00,334,Wunderground v.1.15,2013-06-18 22:22:00,
2013-06-18 18:32:00,89.9,74.2,29.96,West,264,4.0,4.0,60,0.00,,,0.00,306,Wunderground v.1.15,2013-06-18 22:32:00,
2013-06-18 18:37:00,89.9,73.7,29.96,NNW,340,4.0,5.0,59,0.00,,,0.00,274,Wunderground v.1.15,2013-06-18 22:37:00,
2013-06-18 18:42:00,89.7,73.0,29.96,West,272,5.0,5.0,58,0.00,,,0.00,262,Wunderground v.1.15,2013-06-18 22:42:00,
2013-06-18 18:52:00,89.5,73.8,29.96,West,271,4.0,6.0,60,0.00,,,0.00,76,Wunderground v.1.15,2013-06-18 22:52:00,
2013-06-18 18:57:00,89.3,73.6,29.97,WNW,301,4.0,6.0,60,0.00,,,0.00,74,Wunderground v.1.15,2013-06-18 22:57:00,
2013-06-18 19:02:00,88.8,73.6,29.97,SSW,205,4.0,5.0,61,0.00,,,0.00,90,Wunderground v.1.15,2013-06-18 23:02:00,
2013-06-18 19:07:00,88.6,73.4,29.97,SW,234,4.0,5.0,61,0.00,,,0.00,70,Wunderground v.1.15,2013-06-18 23:07:00,
2013-06-18 19:17:00,88.0,73.3,29.97,WNW,284,5.0,6.0,62,0.00,,,0.00,69,Wunderground v.1.15,2013-06-18 23:17:00,
2013-06-18 19:22:00,87.8,73.6,29.97,WSW,251,4.0,6.0,63,0.00,,,0.00,65,Wunderground v.1.15,2013-06-18 23:22:00,
2013-06-18 19:32:00,87.6,74.4,29.97,WSW,244,4.0,5.0,65,0.00,,,0.00,53,Wunderground v.1.15,2013-06-18 23:32:00,
2013-06-18 19:37:00,87.4,74.6,29.97,WSW,243,4.0,5.0,66,0.00,,,0.00,49,Wunderground v.1.15,2013-06-18 23:37:00,
2013-06-18 19:42:00,87.4,74.6,29.97,WNW,295,3.0,3.0,66,0.00,,,0.00,46,Wunderground v.1.15,2013-06-18 23:42:00,
2013-06-18 19:47:00,87.2,74.9,29.98,WSW,256,3.0,4.0,67,0.00,,,0.00,39,Wunderground v.1.15,2013-06-18 23:47:00,
2013-06-18 19:57:00,86.5,74.2,29.98,WSW,243,3.0,6.0,67,0.00,,,0.00,30,Wunderground v.1.15,2013-06-18 23:57:00,
2013-06-18 20:02:00,86.5,74.7,29.98,WSW,258,3.0,6.0,68,0.00,,,0.00,23,Wunderground v.1.15,2013-06-19 00:02:00,
2013-06-18 20:07:00,86.3,74.5,29.98,West,261,3.0,6.0,68,0.00,,,0.00,18,Wunderground v.1.15,2013-06-19 00:07:00,
2013-06-18 20:17:00,85.9,74.5,29.98,WSW,247,3.0,5.0,69,0.00,,,0.00,11,Wunderground v.1.15,2013-06-19 00:17:00,
2013-06-18 20:22:00,85.7,74.4,29.98,SW,234,3.0,3.0,69,0.00,,,0.00,5,Wunderground v.1.15,2013-06-19 00:22:00,
2013-06-18 20:27:00,85.5,74.6,29.98,West,267,2.0,3.0,70,0.00,,,0.00,0,Wunderground v.1.15,2013-06-19 00:27:00,
2013-06-18 20:37:00,85.3,74.8,29.98,West,281,2.0,4.0,71,0.00,,,0.00,0,Wunderground v.1.15,2013-06-19 00:37:00,
2013-06-18 20:42:00,84.9,74.4,29.99,West,274,2.0,2.0,71,0.00,,,0.00,0,Wunderground v.1.15,2013-06-19 00:42:00,
2013-06-18 20:52:00,84.7,75.1,29.99,SW,215,1.0,1.0,73,0.00,,,0.00,0,Wunderground v.1.15,2013-06-19 00:52:00,
2013-06-18 20:57:00,84.5,74.9,29.99,WSW,248,2.0,2.0,73,0.00,,,0.00,0,Wunderground v.1.15,2013-06-19 00:57:00,
2013-06-18 21:07:00,84.1,74.9,29.99,SW,217,2.0,5.0,74,0.00,,,0.00,0,Wunderground v.1.15,2013-06-19 01:07:00,
2013-06-18 21:12:00,84.1,74.9,29.99,West,264,2.0,2.0,74,0.00,,,0.00,0,Wunderground v.1.15,2013-06-19 01:12:00,
2013-06-18 21:17:00,84.0,75.2,29.99,WSW,243,2.0,2.0,75,0.00,,,0.00,0,Wunderground v.1.15,2013-06-19 01:17:00,
2013-06-18 21:27:00,83.8,75.0,29.99,SW,234,2.0,4.0,75,0.00,,,0.00,0,Wunderground v.1.15,2013-06-19 01:27:00,
2013-06-18 21:32:00,83.6,75.2,29.99,SW,234,2.0,2.0,76,0.00,,,0.00,0,Wunderground v.1.15,2013-06-19 01:32:00,
2013-06-18 21:37:00,83.6,75.2,29.99,SW,234,2.0,2.0,76,0.00,,,0.00,0,Wunderground v.1.15,2013-06-19 01:37:00,
2013-06-18 21:42:00,83.4,75.0,29.99,WSW,258,2.0,2.0,76,0.00,,,0.00,0,Wunderground v.1.15,2013-06-19 01:42:00,
2013-06-18 21:52:00,83.2,74.8,30.00,WSW,240,1.0,1.0,76,0.00,,,0.00,0,Wunderground v.1.15,2013-06-19 01:52:00,
2013-06-18 21:57:00,83.2,74.8,30.00,SW,229,1.0,1.0,76,0.00,,,0.00,0,Wunderground v.1.15,2013-06-19 01:57:00,
2013-06-18 22:02:00,83.0,75.0,30.00,WSW,241,1.0,2.0,77,0.00,,,0.00,0,Wunderground v.1.15,2013-06-19 02:02:00,
2013-06-18 22:12:00,83.0,75.0,30.01,WSW,251,1.0,1.0,77,0.00,,,0.00,0,Wunderground v.1.15,2013-06-19 02:12:00,
2013-06-18 22:22:00,82.8,74.8,30.01,WSW,250,0.0,0.0,77,0.00,,,0.00,0,Wunderground v.1.15,2013-06-19 02:22:00,
2013-06-18 22:27:00,82.8,74.8,30.01,WSW,250,0.0,2.0,77,0.00,,,0.00,0,Wunderground v.1.15,2013-06-19 02:27:00,
2013-06-18 22:32:00,82.6,75.0,30.01,SW,233,1.0,1.0,78,0.00,,,0.00,0,Wunderground v.1.15,2013-06-19 02:32:00,
2013-06-18 22:37:00,82.6,75.0,30.01,SW,233,1.0,1.0,78,0.00,,,0.00,0,Wunderground v.1.15,2013-06-19 02:37:00,
2013-06-18 22:47:00,82.4,74.8,30.01,SW,233,0.0,0.0,78,0.00,,,0.00,0,Wunderground v.1.15,2013-06-19 02:47:00,
2013-06-18 22:52:00,82.4,75.2,30.01,SW,234,0.0,0.0,79,0.00,,,0.00,0,Wunderground v.1.15,2013-06-19 02:52:00,
2013-06-18 23:02:00,82.2,75.0,30.01,SW,234,0.0,0.0,79,0.00,,,0.00,0,Wunderground v.1.15,2013-06-19 03:02:00,
2013-06-18 23:07:00,82.0,74.8,30.01,SW,234,0.0,1.0,79,0.00,,,0.00,0,Wunderground v.1.15,2013-06-19 03:07:00,
2013-06-18 23:12:00,82.0,74.8,30.01,SW,234,0.0,0.0,79,0.00,,,0.00,0,Wunderground v.1.15,2013-06-19 03:12:00,
2013-06-18 23:22:00,81.8,75.0,30.01,SW,234,0.0,0.0,80,0.00,,,0.00,0,Wunderground v.1.15,2013-06-19 03:22:00,
2013-06-18 23:27:00,81.6,74.8,30.01,SW,234,0.0,0.0,80,0.00,,,0.00,0,Wunderground v.1.15,2013-06-19 03:27:00,
2013-06-18 23:37:00,81.6,74.8,30.01,SW,234,0.0,0.0,80,0.00,,,0.00,0,Wunderground v.1.15,2013-06-19 03:37:00,
2013-06-18 23:42:00,81.4,75.0,30.01,SW,234,0.0,0.0,81,0.00,,,0.00,0,Wunderground v.1.15,2013-06-19 03:42:00,
2013-06-18 23:47:00,81.4,75.0,30.01,SW,234,0.0,0.0,81,0.00,,,0.00,0,Wunderground v.1.15,2013-06-19 03:47:00,
2013-06-18 23:57:00,81.2,74.8,30.01,SW,234,0.0,0.0,81,0.00,,,0.00,0,Wunderground v.1.15,2013-06-19 03:57:00,